Location: Fours
(44.3167°N, 6.7000°E)
Time: 12:33:13
(UTC+00:00)

X-37B - Pass Details

Date: 10 December 2021
Orbit: 334 x 337 km, 45.0° (Epoch: 11 January)

Event Time Altitude Azimuth Distance (km) Brightness Sun altitude
Rises 16:38:21 0° 240° (WSW) 2,097 6.7 -7.8°
Reaches altitude 10° 16:40:23 10° 234° (SW) 1,263 4.8 -8.2°
Maximum altitude 16:43:07 46° 159° (SSE) 459 1.0 -8.6°
Enters shadow 16:45:33 12° 86° (E) 1,146 2.4 -9.0°
